Location: Le Sartre
(44.8050°N, 2.2123°E)
Time: 08:30:50
(UTC+00:00)

Cosmos 2228 - Pass Details

Date: 15 May 2026
Orbit: 562 x 587 km, 82.5° (Epoch: 5 June)

Event Time Altitude Azimuth Distance (km) Brightness Sun altitude
Rises 19:38:12 0° 166° (SSE) 2,755 6.0 -4.7°
Reaches altitude 10° 19:40:29 10° 158° (SSE) 1,860 5.0 -5.0°
Maximum altitude 19:44:14 36° 92° (E) 912 3.5 -5.6°
Drops below altitude 10° 19:48:00 10° 25° (NNE) 1,866 5.7 -6.1°
Sets 19:50:18 0° 17° (NNE) 2,766 6.6 -6.5°
